Simultaneous Nadir Overpasses (SNOs) Predictions

Prediction of SNOs between GOES-17 and TERRA Satellite Orbit:

Table of predicted SNOs for the next 14.0 days since TLE Epoch: 1/28/2023
Index Date Time (GOES-17) GOES-17 Lat,Lon TERRA Lat,Lon Distance(km) Time Diff (sec)
1 01/29/2023 06:00:44 -0.00,-117.36 -0.11,-117.76 45.09 80
2 01/31/2023 05:47:25 -0.00,-115.04 0.23,-113.83 137.17 80
3 01/31/2023 18:05:02 0.00,-114.45 0.89,-118.74 487.16 80
4 02/02/2023 05:31:26 -0.01,-112.71 0.59,-109.90 319.46 80
5 02/02/2023 17:49:02 0.00,-112.12 0.59,-114.80 304.85 80
6 02/04/2023 17:33:02 0.01,-109.79 0.26,-110.86 122.40 80
7 02/06/2023 17:19:42 0.02,-107.46 -0.08,-106.93 60.20 80
8 02/08/2023 17:03:42 0.02,-105.14 -0.44,-103.00 243.28 80
9 02/09/2023 05:21:27 -0.02,-104.52 -0.76,-107.94 388.49 80
10 02/10/2023 16:47:41 0.02,-102.81 -0.77, -99.06 426.53 80
